Change the Weather History Date:

Tuesday, February 5, 2013

  Actual Average Record
Temperature  
Mean Temperature 52 °F -  
Max Temperature 57 °F 61 °F 82 °F (2007)
Min Temperature 48 °F 43 °F 39 °F (2003)
Degree Days  
Heating Degree Days 12    
Growing Degree Days 2 (Base 50)    
Moisture  
Dew Point 50 °F    
Average Humidity 87    
Maximum Humidity 100    
Minimum Humidity 77    
Precipitation  
Precipitation 0.00 in - - ()
Sea Level Pressure  
Sea Level Pressure 30.05 in    
Wind  
Wind Speed 4 mph (North)    
Max Wind Speed 8 mph    
Max Gust Speed -    
Visibility 5 miles    
Events      
Averages and records for this station are not official NWS values.
T = Trace of Precipitation, MM = Missing Value Source: NWS Daily Summary

Daily Weather History Graph

Daily Weather History Graph

Search for Another Location

Airport or City:

Trip Planner

Search our weather history database for the weather conditions in past years. The results will help you decide how hot, cold, wet, or windy it might be!

Date:

Astronomy

Feb. 05, 2013 Rise Set
Actual Time 6:50 AM PST 5:31 PM PST
Civil Twilight 6:24 AM PST 5:57 PM PST
Nautical Twilight 5:54 AM PST 6:26 PM PST
Astronomical Twilight 5:25 AM PST 6:56 PM PST
Moon 2:32 AM PST (2/5) 12:58 PM PST (2/5)
Length of Visible Light 11h 32m
Length of Day
10h 40m
Waning Crescent, 25% of the Moon is Illuminated
Feb 5
Waning Crescent
Feb 9
New
Feb 17
First Quarter
Feb 25
Full
Mar 4
Last Quarter

Hourly Weather History & Observations

Time (PST) Temp. Dew Point Humidity Pressure Visibility Wind Dir Wind Speed Gust Speed Precip Events Conditions
12:54 AM 48.9 °F 48.9 °F 100% 30.06 in - NE 5.8 mph - N/A   Scattered Clouds
1:26 AM 48.2 °F 48.2 °F 100% 30.06 in - ENE 3.5 mph - N/A   Mostly Cloudy
1:54 AM 50.0 °F 50.0 °F 100% 30.06 in - Calm Calm - N/A   Overcast
2:07 AM 50.0 °F 50.0 °F 100% 30.04 in - NE 4.6 mph - N/A   Overcast
2:54 AM 51.1 °F 51.1 °F 100% 30.04 in - NE 3.5 mph - N/A   Overcast
3:21 AM 51.8 °F 51.8 °F 100% 30.04 in - North 3.5 mph - N/A   Overcast
3:30 AM 51.8 °F 51.8 °F 100% 30.04 in - Calm Calm - N/A   Overcast
3:54 AM 51.1 °F 51.1 °F 100% 30.04 in - NE 3.5 mph - N/A   Overcast
4:54 AM 52.0 °F 52.0 °F 100% 30.03 in - ENE 4.6 mph - N/A   Overcast
5:54 AM 52.0 °F 46.8 °F 82% 30.05 in 5.0 mi Calm Calm - N/A   Overcast
6:40 AM 51.8 °F 51.8 °F 100% 30.06 in - NE 3.5 mph - N/A   Overcast
6:54 AM 52.0 °F 48.4 °F 88% 30.06 in 3.0 mi NE 5.8 mph - N/A   Overcast
7:07 AM 51.8 °F 51.8 °F 100% 30.06 in - NE 6.9 mph - N/A   Overcast
7:16 AM 51.8 °F 51.8 °F 100% 30.07 in - NNE 4.6 mph - N/A   Overcast
7:20 AM 51.8 °F 48.2 °F 88% 30.07 in 2.5 mi NNE 6.9 mph - N/A   Overcast
7:54 AM 53.4 °F 48.0 °F 82% 30.08 in 2.5 mi NE 5.8 mph - N/A   Overcast
8:01 AM 51.8 °F 51.8 °F 100% 30.08 in - NE 8.1 mph - N/A   Overcast
8:11 AM 53.6 °F 48.2 °F 82% 30.08 in 2.5 mi NE 6.9 mph - N/A   Overcast
8:54 AM 52.9 °F 48.6 °F 85% 30.10 in 3.0 mi NNE 4.6 mph - N/A   Overcast
9:54 AM 55.6 °F 49.6 °F 80% 30.11 in 4.0 mi Calm Calm - N/A   Haze
10:54 AM 55.6 °F 49.6 °F 80% 30.11 in 4.0 mi South 3.5 mph - N/A   Haze
11:08 AM 55.4 °F 50.0 °F 82% 30.10 in 4.0 mi South 6.9 mph - N/A   Haze
11:54 AM 55.6 °F 49.6 °F 80% 30.09 in 4.0 mi South 5.8 mph - N/A   Haze
12:33 PM 53.6 °F 50.0 °F 88% 30.06 in 4.0 mi Calm Calm - N/A   Overcast
12:54 PM 56.7 °F 50.0 °F 78% 30.05 in 4.0 mi Calm Calm - N/A   Haze
1:54 PM 56.3 °F 49.8 °F 79% 30.03 in 4.0 mi South 6.9 mph - N/A   Haze
2:01 PM 57.2 °F 50.0 °F 77% 30.03 in 4.0 mi SSW 8.1 mph - N/A   Haze
2:54 PM 56.3 °F 49.8 °F 79% 30.03 in 7.0 mi SW 5.8 mph - N/A   Overcast
3:01 PM 55.4 °F 53.6 °F 94% 30.03 in - SW 5.8 mph - N/A   Overcast
3:08 PM 55.4 °F 50.0 °F 82% 30.03 in 7.0 mi SW 5.8 mph - N/A   Overcast
3:54 PM 56.7 °F 50.2 °F 79% 30.02 in 6.0 mi SW 3.5 mph - N/A   Haze
4:43 PM 57.2 °F 50.0 °F 77% 30.02 in 6.0 mi West 4.6 mph - N/A   Haze
4:54 PM 56.3 °F 49.5 °F 78% 30.03 in 6.0 mi West 6.9 mph - N/A   Haze
5:23 PM 55.4 °F 51.8 °F 88% 30.01 in 6.0 mi Calm Calm - N/A   Haze
5:54 PM 56.1 °F 50.2 °F 80% 30.02 in 6.0 mi SW 3.5 mph - N/A   Haze
6:06 PM - - N/A% - - North - - N/A   Unknown
6:54 PM 55.9 °F 49.8 °F 80% 30.02 in 6.0 mi West 4.6 mph - N/A   Haze
7:11 PM 55.4 °F 50.0 °F 82% 30.02 in 6.0 mi West 3.5 mph - N/A   Haze
7:54 PM 55.4 °F 48.9 °F 79% 30.03 in 6.0 mi West 6.9 mph - N/A   Haze
8:54 PM 56.3 °F 50.0 °F 79% 30.04 in 7.0 mi WSW 3.5 mph - N/A   Overcast
9:54 PM 55.9 °F 49.3 °F 78% 30.04 in 7.0 mi Calm Calm - N/A   Overcast
10:54 PM 55.8 °F 49.1 °F 78% 30.04 in 7.0 mi Calm Calm - N/A   Overcast
11:54 PM 55.0 °F 51.1 °F 86% 30.04 in - Calm Calm - N/A   Overcast